Dayton Wright, OH

7:32 AM EST on December 12, 2017 (GMT -0500)
Dayton-Wright Brothers

Weather History for KMGY - September, 2013

Change the Weather History Date:

Monday, September 16, 2013

  Actual Average (KFFO) Record (KFFO)
Temperature  
Mean Temperature 63 °F -  
Max Temperature 70 °F 74 °F 86 °F (2016)
Min Temperature 55 °F 51 °F 40 °F (2011)
Degree Days  
Heating Degree Days 2    
Growing Degree Days 13 (Base 50)    
Moisture  
Dew Point 54 °F    
Average Humidity 79    
Maximum Humidity 94    
Minimum Humidity 54    
Precipitation  
Precipitation 0.03 in - - ()
Sea Level Pressure  
Sea Level Pressure 30.21 in    
Wind  
Wind Speed 6 mph (NE)    
Max Wind Speed 12 mph    
Max Gust Speed -    
Visibility 9 miles    
Events Rain    
Averages and records for this station are not official NWS values.
T = Trace of Precipitation, MM = Missing Value Source: NWS Daily Summary

Daily Weather History Graph

Daily Weather History Graph

Search for Another Location

Airport or City:

Trip Planner

Search our weather history database for the weather conditions in past years. The results will help you decide how hot, cold, wet, or windy it might be!

Date:

Astronomy

Sep. 16, 2013 Rise Set
Actual Time 7:19 AM EDT 7:43 PM EDT
Civil Twilight 6:52 AM EDT 8:10 PM EDT
Nautical Twilight 6:20 AM EDT 8:41 PM EDT
Astronomical Twilight 5:47 AM EDT 9:14 PM EDT
Moon 5:51 PM EDT (9/16) 4:04 AM EDT (9/16)
Length of Visible Light 13h 18m
Length of Day
12h 24m
Waxing Gibbous, 90% of the Moon is Illuminated
Sep 16
Waxing Gibbous
Sep 19
Full
Sep 26
Last Quarter
Oct 4
New
Oct 11
First Quarter

Hourly Weather History & Observations

Time (EDT) Temp. Dew Point Humidity Pressure Visibility Wind Dir Wind Speed Gust Speed Precip Events Conditions
12:53 AM 59.0 °F 55.0 °F 87% 30.09 in 10.0 mi NNE 11.5 mph - 0.00 in   Overcast
1:53 AM 57.9 °F 55.0 °F 90% 30.10 in 8.0 mi NE 9.2 mph - 0.01 in Rain Light Rain
2:43 AM 57.2 °F 55.4 °F 94% 30.13 in 9.0 mi NE 4.6 mph - 0.01 in Rain Light Rain
2:53 AM 57.9 °F 55.9 °F 93% 30.12 in 8.0 mi ENE 4.6 mph - 0.01 in   Overcast
3:53 AM 57.9 °F 55.9 °F 93% 30.12 in 8.0 mi East 3.5 mph - 0.00 in   Overcast
4:53 AM 57.9 °F 55.0 °F 90% 30.12 in 9.0 mi East 4.6 mph - N/A   Overcast
5:53 AM 57.9 °F 55.9 °F 93% 30.13 in 9.0 mi Calm Calm - N/A   Overcast
6:10 AM 57.2 °F 55.4 °F 94% 30.15 in 10.0 mi Calm Calm - N/A   Overcast
6:51 AM 59.0 °F 55.4 °F 88% 30.17 in 10.0 mi Calm Calm - N/A   Overcast
6:53 AM 59.0 °F 55.9 °F 90% 30.16 in 10.0 mi Calm Calm - N/A   Overcast
7:29 AM 59.0 °F 55.4 °F 88% 30.18 in 9.0 mi NNE 4.6 mph - N/A   Overcast
7:53 AM 59.0 °F 55.9 °F 90% 30.18 in 7.0 mi NNE 3.5 mph - N/A   Overcast
8:03 AM 59.0 °F 55.4 °F 88% 30.19 in 6.0 mi Calm Calm - N/A   Overcast
8:15 AM 59.0 °F 57.2 °F 94% 30.20 in 6.0 mi Calm Calm - N/A   Overcast
8:53 AM 60.1 °F 57.0 °F 90% 30.20 in 6.0 mi North 5.8 mph - N/A   Overcast
8:56 AM 60.8 °F 57.2 °F 88% 30.22 in 6.0 mi North 6.9 mph - N/A   Overcast
9:09 AM 59.0 °F 55.4 °F 88% 30.22 in 6.0 mi North 8.1 mph - N/A   Overcast
9:26 AM 60.8 °F 57.2 °F 88% 30.22 in 7.0 mi NNE 6.9 mph - N/A   Overcast
9:53 AM 60.1 °F 57.0 °F 90% 30.22 in 8.0 mi NNE 6.9 mph - N/A   Overcast
10:13 AM 60.8 °F 55.4 °F 82% 30.23 in 9.0 mi NE 8.1 mph - N/A   Overcast
10:45 AM 62.6 °F 55.4 °F 77% 30.25 in 10.0 mi NE 9.2 mph - N/A   Overcast
10:53 AM 62.1 °F 55.0 °F 78% 30.24 in 10.0 mi NE 10.4 mph - N/A   Overcast
11:06 AM 62.6 °F 55.4 °F 77% 30.25 in 10.0 mi NE 11.5 mph - N/A   Overcast
11:15 AM 62.6 °F 55.4 °F 77% 30.26 in 10.0 mi NE 5.8 mph - N/A   Overcast
11:22 AM 62.6 °F 55.4 °F 77% 30.26 in 10.0 mi NNE 8.1 mph - N/A   Overcast
11:39 AM 64.4 °F 55.4 °F 73% 30.26 in 10.0 mi NE 10.4 mph - N/A   Overcast
11:53 AM 64.0 °F 55.0 °F 73% 30.25 in 10.0 mi NE 10.4 mph - N/A   Mostly Cloudy
12:12 PM 64.4 °F 55.4 °F 73% 30.27 in 10.0 mi NE 9.2 mph - N/A   Overcast
12:53 PM 66.9 °F 55.0 °F 66% 30.26 in 10.0 mi NE 6.9 mph - N/A   Overcast
1:53 PM 69.1 °F 55.0 °F 61% 30.25 in 10.0 mi North 8.1 mph - 0.01 in   Mostly Cloudy
2:03 PM 68.0 °F 53.6 °F 60% 30.26 in 10.0 mi NNE 6.9 mph - N/A   Mostly Cloudy
2:53 PM 66.9 °F 54.0 °F 63% 30.25 in 10.0 mi NE 9.2 mph - N/A   Overcast
3:53 PM 68.0 °F 53.1 °F 59% 30.25 in 10.0 mi NNE 9.2 mph - N/A   Overcast
4:53 PM 69.1 °F 52.0 °F 54% 30.23 in 10.0 mi North 8.1 mph - N/A   Partly Cloudy
5:53 PM 66.9 °F 51.1 °F 57% 30.24 in 10.0 mi NNE 6.9 mph - N/A   Mostly Cloudy
6:53 PM 66.0 °F 51.1 °F 59% 30.25 in 10.0 mi NNE 5.8 mph - N/A   Clear
7:53 PM 62.1 °F 50.0 °F 65% 30.25 in 10.0 mi NNE 3.5 mph - N/A   Clear
8:53 PM 60.1 °F 48.9 °F 67% 30.26 in 10.0 mi North 5.8 mph - N/A   Clear
9:53 PM 59.0 °F 50.0 °F 72% 30.27 in 10.0 mi NNE 6.9 mph - N/A   Clear
10:53 PM 57.0 °F 50.0 °F 77% 30.28 in 10.0 mi NE 6.9 mph - N/A   Clear
11:53 PM 55.9 °F 50.0 °F 80% 30.30 in 10.0 mi NE 9.2 mph - N/A   Clear